User: anonymous   Login
Location: Armidale
(30.5016°S, 151.6662°E)
Time: 05:59:49
(UTC+10:00)
Language:

CUTE 1.7 + AOD 2 - Orbit

View from above orbital plane
View from above orbital plane
View from above satellite
View from above satellite

Ground track
Ground track

The orbit data is extracted from the following two-line orbital elements,

1 32785U 08021C   21204.15645196  .00000338  00000-0  41818-4 0  9992
2 32785  97.6129 181.6181 0011497 242.0833 117.9220 14.88754989717551
Epoch (UTC): 23 July 2021 03:45:17
Eccentricity: 0.0011497
inclination: 97.6129°
perigee height: 594 km
apogee height: 610 km
right ascension of ascending node: 181.6181°
argument of perigee: 242.0833°
revolutions per day: 14.88754989
mean anomaly at epoch: 117.9220°
orbit number at epoch: 71755

The dashed part of the orbit path shows where the satellite is in the earth's shadow,  

DLR